Showing default

ASTROCAST-0402, 55109

Orbit data source: Space-Track

ASTROCAST-0402, 55109 is a payload satellite owned by Astrocast (CH) in SSO that was launched on Tue, 03 Jan 2023 UTC via an FALCON 9 launch vehicle from the Air Force Eastern Test Range (AFETR). Payload-class satellites include a variety of spacecraft equipped with specific instruments for various scientific and technological missions. These include communications satellites like Starlink; space stations such as the ISS; scientific satellites like the Hubble; Earth observation satellites from companies like Planet Labs, Umbra, and HawkEye 360; GPS; miniature CubeSats for education and research; and military/defense satellites.

Loading next visibility...
Identifier
55109, 2023-001DE
Orbit
SSO
Country
Flag of CHCH / SWTZ
Related business
Manufacturer
Astrocast
Mission
Operational Commercial Communications
Bus & Motor
CUBESAT 3U, Unknown motor
Mass
4.5 kg wet, 4.5 kg dry
Launch date (UTC)
2023-01-03 (3 years ago)
Launch vehicle
FALCON 9
Launch site
Air Force Eastern Test Range (AFETR)
Object type
Payload
Rocket body
Debris
Shape & HBR
Box, 0.1 m
Radar Cross Section
0.035 m², Medium (>0.1 m² and < 1m²)

Expand to show TLE details & history
Last TLE update: 12 hours ago

TLE from 12 hours ago
0 ASTROCAST-0402
1 55109U 23001DE  26166.79914093  .00007335  00000-0  26678-3 0  9999
2 55109  97.5584 259.9764 0003854 230.3625 129.7274 15.28549873144321
Epoch: 2026-06-15T19:10Z
TLE epoch observation values (Epoch: 2026-06-15T19:10:45.776Z)
Latitude
-0.00007°
Longitude
68.20533°
Altitude
484.934 km
Speed
7.622 km/s
True Right ascension
17h 19m 54s
True Declination
0° 00' 00"
Sunlit
Object was in full shadow at epoch
Visualization orbit readout
Latitude
Unknown
Longitude
Unknown
Altitude
Unknown
Speed
Unknown
Apparent Right ascension
Unknown
Apparent Declination
Unknown
Sunlit
N/A
Visualization observer readout
Local Sidereal Time
17:58:59
Azimuth
Unknown
Elevation
Unknown
Doppler factor
Unknown
Orbital elements
Apogee altitude
479.75 km
Perigee altitude
474.466 km
Semi-major axis
6,855.245 km
Eccentricity
0.00039
Inclination
97.5584°
RAAN
259.9764°
Arg. of periapsis
230.3625°
True anomaly
129.76136°
Mean anomaly
129.7274°
Eccentric anomaly
129.74438°
Mean motion
3.82392 °/min
Orbital period
94.14 mins
BSTAR
0.00026678
Loading maneuver chart data...
Computing Atmospheric mass density...

Documentation

Showing up to 5 results
|